Actual water levels and discharges of Morava river

Lanžhot

Date and time (UTC) H (cm) Q (m³/s)
20. 10. 2021 23:10 24 14.4
20. 10. 2021 23:00 24 14
20. 10. 2021 22:00 24 14
20. 10. 2021 21:00 23 14
20. 10. 2021 20:00 23 14
20. 10. 2021 19:00 23 14
20. 10. 2021 18:00 23 14
20. 10. 2021 17:00 23 14
20. 10. 2021 16:00 23 14
20. 10. 2021 15:00 23 14
20. 10. 2021 14:00 23 14
20. 10. 2021 13:00 23 14
20. 10. 2021 12:00 22 14
20. 10. 2021 11:00 22 14

H - water level, Q - discharge

Strážnice

Date and time (UTC) H (cm) Q (m³/s)
20. 10. 2021 23:20 99 14
20. 10. 2021 23:00 99 14
20. 10. 2021 22:00 99 14
20. 10. 2021 21:00 99 14
20. 10. 2021 20:00 99 14
20. 10. 2021 19:00 99 14
20. 10. 2021 18:00 99 14
20. 10. 2021 17:00 100 14
20. 10. 2021 16:00 100 14
20. 10. 2021 15:00 100 14
20. 10. 2021 14:00 99 14
20. 10. 2021 13:00 99 14
20. 10. 2021 12:00 99 14
20. 10. 2021 11:00 98 14

H - water level, Q - discharge
more information

Spytihněv

Date and time (UTC) H (cm) Q (m³/s)
20. 10. 2021 23:20 71 11.8
20. 10. 2021 23:00 77 13
20. 10. 2021 22:00 90 16
20. 10. 2021 21:00 69 11
20. 10. 2021 20:00 88 17
20. 10. 2021 19:00 85 14
20. 10. 2021 18:00 73 13
20. 10. 2021 17:00 81 14
20. 10. 2021 16:00 82 14
20. 10. 2021 15:00 82 14
20. 10. 2021 14:00 82 14
20. 10. 2021 13:00 76 13
20. 10. 2021 12:00 75 13
20. 10. 2021 11:00 79 14

H - water level, Q - discharge

Kroměříž

Date and time (UTC) H (cm) Q (m³/s)
20. 10. 2021 23:20 119 13
20. 10. 2021 23:00 117 13
20. 10. 2021 22:00 117 13
20. 10. 2021 21:00 117 13
20. 10. 2021 20:00 116 12
20. 10. 2021 19:00 117 13
20. 10. 2021 18:00 117 13
20. 10. 2021 17:00 118 13
20. 10. 2021 16:00 117 13
20. 10. 2021 15:00 117 13
20. 10. 2021 14:00 118 13
20. 10. 2021 13:00 117 13
20. 10. 2021 12:00 116 12
20. 10. 2021 11:00 115 12

H - water level, Q - discharge
more information

Olomouc-Nové Sady tok

Date and time (UTC) H (cm) Q (m³/s)
20. 10. 2021 23:30 88 8
20. 10. 2021 23:00 88 8
20. 10. 2021 22:00 88 8
20. 10. 2021 21:00 89 8
20. 10. 2021 20:00 89 8
20. 10. 2021 19:00 90 9
20. 10. 2021 18:00 90 9
20. 10. 2021 17:00 90 9
20. 10. 2021 16:00 90 9
20. 10. 2021 15:00 89 8
20. 10. 2021 14:00 89 8
20. 10. 2021 13:00 89 8
20. 10. 2021 12:00 89 8
20. 10. 2021 11:00 89 8

H - water level, Q - discharge

Moravičany

Date and time (UTC) H (cm) Q (m³/s)
20. 10. 2021 23:30 82 6.4
20. 10. 2021 23:00 82 6
20. 10. 2021 22:00 82 6
20. 10. 2021 21:00 82 6
20. 10. 2021 20:00 83 7
20. 10. 2021 19:00 83 7
20. 10. 2021 18:00 83 7
20. 10. 2021 17:00 82 6
20. 10. 2021 16:00 82 6
20. 10. 2021 15:00 82 6
20. 10. 2021 14:00 82 6
20. 10. 2021 13:00 82 6
20. 10. 2021 12:00 82 6
20. 10. 2021 11:00 82 6

H - water level, Q - discharge
Source data
Labe Basin Vltava Basin Povodí Moravy ČHMÚ